[[{"header":{"parameterUnit":"m.s-1","parameterCategory":1,"la1":30.2991,"la2":30.254,"lo1":-89.0895,"lo2":-89.0444,"dy":0.0017,"dx":0.0017,"nx":28,"ny":28,"refTime":"2023-11-16T03:00:00:Z","depth":0,"parameterNumber":2,"parameterNumberName":"U-component_of_WINDS"},"data":[0,0,0,0,0,0,0,0,0,0,0,0,0,0,0,0,0,0,0,0,0,0,0,0,0,0,0,0,0,0,0,0,0,0,0,0,0,0,0,0,0,0,0,0,0,0,0,0,0,0,0,0,0,0,0,0,0,0,-3.3375,-3.3376,0,-3.3537,-3.3539,-3.3541,-3.3522,-3.3519,-3.3516,-3.3514,-3.3686,-3.3692,-3.3699,0,0,0,0,0,0,0,0,0,0,0,0,0,-3.3053,-3.3059,-3.3375,-3.3377,-3.3379,-3.3537,-3.3539,-3.3541,-3.3522,-3.3519,-3.3516,-3.3513,-3.3683,-3.3692,-3.37,0,0,0,0,0,0,0,0,0,0,0,0,0,-3.3202,-3.3061,-3.3374,-3.3388,-3.3391,-3.3536,-3.3539,-3.3542,-3.3523,-3.3519,-3.3515,-3.3511,-3.3681,-3.3691,-3.3701,-3.3845,0,0,-3.3733,-3.3738,0,0,0,0,0,0,0,0,-3.3194,-3.3214,-3.3384,-3.3387,-3.3391,-3.3505,-3.3489,-3.3644,-3.3524,-3.3473,-3.3514,-3.3509,-3.3629,-3.3644,-3.3683,-3.3853,-3.386,-3.3734,-3.3741,-3.3745,-3.3748,0,0,0,0,0,0,0,-3.3184,-3.3207,-3.3439,-3.3387,-3.3391,-3.3388,-3.3405,-3.3518,-3.3571,-3.3477,-3.3476,-3.3495,-3.363,-3.3673,-3.3687,-3.3863,-3.3734,-3.3743,-3.375,-3.3754,-3.4161,-3.4165,0,0,0,0,0,0,-3.3169,-3.3199,-3.3434,-3.3444,-3.328,-3.3397,-3.3416,-3.3472,-3.357,-3.3581,-3.3498,-3.3494,-3.3657,-3.3674,-3.3693,-3.3869,-3.3745,-3.3755,-3.3761,-3.4156,-3.4162,-3.4167,0,0,0,0,0,0,-3.3162,-3.319,-3.3427,-3.3321,-3.3351,-3.3407,-3.3471,-3.3478,-3.352,-3.3586,-3.3596,-3.3532,-3.3654,-3.3678,-3.3807,-3.3875,-3.376,-3.3769,-3.4151,-3.4158,-3.4164,-3.4222,0,0,0,0,0,0,-3.3153,-3.3188,-3.3242,-3.3322,-3.3357,-3.3538,-3.3475,-3.3484,-3.3538,-3.3533,-3.362,-3.3631,-3.3653,-3.3792,-3.3818,-3.3887,-3.3777,-3.4145,-3.4154,-3.4162,-3.4215,-3.423,-3.4244,0,0,0,0,0,-3.3142,-3.3252,-3.3245,-3.3273,-3.3425,-3.3542,-3.3562,-3.3584,-3.3543,-3.3599,-3.3641,-3.3628,-3.3862,-3.3805,-3.3834,-3.3908,-3.4141,-3.4152,-3.4162,-3.4208,-3.4227,-3.4243,0,0,0,0,0,0,-3.318,-3.3263,-3.3255,-3.3395,-3.3461,-3.3538,-3.3609,-3.3603,-3.3683,-3.3676,-3.3701,-3.3721,-3.3852,-3.3892,-3.3827,-3.4053,-3.3997,-3.4013,-3.4022,-3.4041,-3.4055,-3.4044,-3.3786,0,0,0,0,0,-3.3204,-3.329,-3.3359,-3.3476,-3.3509,-3.3553,-3.3605,-3.3616,-3.3686,-3.3715,-3.3767,-3.3837,-3.3927,-3.3986,-3.4072,-3.4219,-3.424,-3.4285,-3.4299,-3.4311,-3.4326,-3.441,-3.4431,-3.42,-3.42,-3.42,0,0,-3.3256,-3.3312,-3.3365,-3.3485,-3.3537,-3.3628,-3.3577,-3.3675,-3.3743,-3.373,-3.3856,-3.3896,-3.3977,-3.4116,-3.4181,-3.4154,-3.4393,-3.4324,-3.4332,-3.4341,-3.4422,-3.4444,-3.4463,-3.4207,-3.4206,-3.4205,0,0,-3.3398,-3.3448,-3.3551,-3.3605,-3.3684,-3.3713,-3.3738,-3.3816,-3.3842,-3.3968,-3.3961,-3.4043,-3.4196,-3.4254,-3.4304,-3.4468,-3.446,-3.4495,-3.4572,-3.4653,-3.4671,-3.4688,-3.4749,-3.477,-3.4509,-3.4509,-3.4509,0,-3.3453,-3.3588,-3.3606,-3.3705,-3.3759,-3.3749,-3.3856,-3.3907,-3.4012,-3.405,-3.4018,-3.4212,-3.4265,-3.4419,-3.4459,-3.4499,-3.453,-3.4487,-3.4667,-3.4683,-3.4699,-3.4758,-3.478,-3.4513,-3.4513,-3.4512,-3.4512,0,-3.3653,-3.3747,-3.3821,-3.3921,-3.3983,-3.4085,-3.4121,-3.4182,-3.4187,-3.422,-3.4349,-3.4412,-3.4512,-3.4549,-3.4555,-3.4705,-3.4687,-3.466,-3.4605,-3.4725,-3.4781,-3.4803,-3.4519,-3.4517,-3.4516,-3.4515,0,0,-3.3826,-3.3933,-3.3961,-3.4007,-3.4094,-3.4168,-3.427,-3.4366,-3.4419,-3.4491,-3.458,-3.471,-3.4686,-3.4743,-3.4756,-3.4827,-3.4956,-3.4792,-3.4795,-3.4823,-3.5128,-3.5149,-3.5175,-3.4949,-3.4953,-3.4957,-3.5122,0,-3.3978,-3.4158,-3.4177,-3.4339,-3.4427,-3.4419,-3.4509,-3.4573,-3.4606,-3.4688,-3.4724,-3.4817,-3.4778,-3.4812,-3.4882,-3.4925,-3.5018,-3.4913,-3.5035,-3.5039,-3.5018,-3.5203,-3.5226,-3.5379,-3.5144,-3.5147,-3.515,0,-3.418,-3.4257,-3.4428,-3.4504,-3.4541,-3.4621,-3.4712,-3.4788,-3.4862,-3.4881,-3.4944,-3.4948,-3.5056,-3.4994,-3.5145,-3.5073,-3.5124,-3.5153,-3.5159,-3.5174,-3.5104,-3.5227,-3.5428,-3.5452,-3.5184,-3.5181,-3.5179,0,-3.4293,-3.4439,-3.456,-3.4599,-3.469,-3.4747,-3.4788,-3.4857,-3.4914,-3.4993,-3.5031,-3.5122,-3.5173,-3.5244,-3.5273,-3.5224,-3.5424,-3.5363,-3.5446,-3.5445,-3.5491,-3.5488,-3.5707,-3.5518,-3.5518,-3.5517,-3.5517,0,-3.4463,-3.4568,-3.4612,-3.4687,-3.4805,-3.4827,-3.4944,-3.4982,-3.5044,-3.5128,-3.5126,-3.5205,-3.5237,-3.5323,-3.5346,-3.5469,-3.5491,-3.5512,-3.5518,-3.5515,-3.5512,-3.5551,-3.5542,-3.5523,-3.5522,-3.5521,-3.552,0,-3.461,-3.4643,-3.4775,-3.4849,-3.4871,-3.4955,-3.502,-3.5094,-3.5125,-3.5232,-3.5258,-3.5308,-3.5409,-3.5444,-3.5565,-3.5581,-3.5726,-3.572,-3.5701,-3.5703,-3.5784,-3.5778,-3.6038,-3.6075,-3.5859,-3.586,-3.5862,0,-3.4718,-3.4798,-3.4881,-3.4937,-3.4979,-3.5068,-3.5126,-3.515,-3.5211,-3.5301,-3.5365,-3.5463,-3.5544,-3.5705,-3.5754,-3.5847,-3.5847,-3.5931,-3.5861,-3.5856,-3.5852,-3.5848,-3.5858,-3.5946,-3.5948,-3.595,-3.5951,0,-3.4907,-3.4919,-3.5001,-3.509,-3.5159,-3.523,-3.53,-3.5345,-3.538,-3.5449,-3.555,-3.5613,-3.5737,-3.5836,-3.5932,-3.5976,-3.5972,-3.5972,-3.5997,-3.5996,-3.5983,-3.5995,-3.574,-3.5967,-3.5966,-3.5965,-3.5964,-3.5963,-3.504,-3.5112,-3.5182,-3.5275,-3.5329,-3.5394,-3.5467,-3.5507,-3.5591,-3.5694,-3.5703,-3.5813,-3.5886,-3.6014,-3.6062,-3.615,-3.6127,-3.6162,-3.6172,-3.6181,-3.6189,-3.5966,-3.6167,-3.6167,-3.6167,-3.6166,-3.6166,0,-3.5232,-3.5276,-3.536,-3.5457,-3.553,-3.5516,-3.5592,-3.5655,-3.5752,-3.5819,-3.5898,-3.6016,-3.6112,-3.6168,-3.6265,-3.6325,-3.6326,-3.6351,-3.6348,-3.6359,-3.6202,-3.6173,-3.6349,-3.6349,-3.6349,-3.6349,-3.6349,-3.6349,-3.534,-3.5463,-3.5483,-3.5633,-3.5677,-3.5784,-3.5829,-3.589,-3.5944,-3.6075,-3.6154,-3.6189,-3.6253,-3.6355,-3.6444,-3.6458,-3.6495,-3.6523,-3.6536,-3.6388,-3.637,-3.6352,-3.6325,-3.653,-3.653,-3.6686,-3.6687,-3.6688]},{"header":{"parameterUnit":"m.s-1","parameterCategory":1,"la1":30.2991,"la2":30.254,"lo1":-89.0895,"lo2":-89.0444,"dy":0.0017,"dx":0.0017,"nx":28,"ny":28,"refTime":"2023-11-16T03:00:00:Z","depth":0,"parameterNumber":3,"parameterNumberName":"V-component_of_WINDS"},"data":[0,0,0,0,0,0,0,0,0,0,0,0,0,0,0,0,0,0,0,0,0,0,0,0,0,0,0,0,0,0,0,0,0,0,0,0,0,0,0,0,0,0,0,0,0,0,0,0,0,0,0,0,0,0,0,0,0,0,-6.5259,-6.526,0,-6.5282,-6.5282,-6.5282,-6.5159,-6.5155,-6.5152,-6.5148,-6.5169,-6.5173,-6.5176,0,0,0,0,0,0,0,0,0,0,0,0,0,-6.5106,-6.5109,-6.5259,-6.526,-6.526,-6.5282,-6.5282,-6.5282,-6.5159,-6.5155,-6.5151,-6.5147,-6.5168,-6.5172,-6.5177,0,0,0,0,0,0,0,0,0,0,0,0,0,-6.5155,-6.511,-6.5259,-6.5201,-6.5196,-6.5282,-6.5282,-6.5282,-6.516,-6.5155,-6.515,-6.5145,-6.5166,-6.5172,-6.5177,-6.5319,0,0,-6.5195,-6.5198,0,0,0,0,0,0,0,0,-6.5152,-6.5161,-6.5209,-6.5205,-6.52,-6.5212,-6.5235,-6.5295,-6.5162,-6.5174,-6.5148,-6.5142,-6.5187,-6.5191,-6.5207,-6.532,-6.5321,-6.5196,-6.5199,-6.5202,-6.5203,0,0,0,0,0,0,0,-6.5149,-6.5159,-6.5268,-6.521,-6.5204,-6.5173,-6.5174,-6.5246,-6.521,-6.5172,-6.5163,-6.5168,-6.5184,-6.5202,-6.5206,-6.5321,-6.5195,-6.5201,-6.5204,-6.5206,-6.555,-6.5556,0,0,0,0,0,0,-6.5154,-6.5157,-6.5267,-6.5269,-6.5163,-6.518,-6.5181,-6.5214,-6.5209,-6.5203,-6.5172,-6.5162,-6.5194,-6.52,-6.5207,-6.5372,-6.5201,-6.5207,-6.521,-6.5545,-6.5552,-6.5558,0,0,0,0,0,0,-6.5151,-6.5165,-6.5266,-6.521,-6.5221,-6.5188,-6.5226,-6.5217,-6.5234,-6.5209,-6.5202,-6.5198,-6.519,-6.5199,-6.5292,-6.5371,-6.5209,-6.5215,-6.5538,-6.5547,-6.5555,-6.5704,0,0,0,0,0,0,-6.5147,-6.5165,-6.5219,-6.5213,-6.5224,-6.5353,-6.523,-6.5221,-6.5245,-6.5232,-6.5231,-6.5225,-6.5187,-6.5284,-6.5298,-6.5376,-6.5219,-6.5531,-6.5542,-6.5552,-6.5692,-6.5716,-6.5737,0,0,0,0,0,-6.5142,-6.526,-6.5223,-6.5237,-6.5292,-6.5358,-6.5364,-6.5318,-6.5252,-6.5306,-6.5289,-6.5225,-6.536,-6.5295,-6.5309,-6.539,-6.5526,-6.5539,-6.5551,-6.5681,-6.5711,-6.5737,0,0,0,0,0,0,-6.5276,-6.5258,-6.5216,-6.5336,-6.5349,-6.5337,-6.5403,-6.5352,-6.5384,-6.537,-6.5311,-6.5311,-6.5415,-6.5411,-6.5339,-6.5526,-6.5431,-6.5447,-6.5525,-6.5553,-6.5576,-6.5575,-6.5224,0,0,0,0,0,-6.5319,-6.5375,-6.5356,-6.5463,-6.5472,-6.5437,-6.5464,-6.5427,-6.5438,-6.5443,-6.5433,-6.5446,-6.5491,-6.5522,-6.5561,-6.569,-6.5688,-6.5753,-6.5775,-6.5794,-6.5809,-6.5876,-6.5905,-6.56,-6.56,-6.5599,0,0,-6.541,-6.5407,-6.5446,-6.549,-6.5496,-6.5554,-6.5443,-6.5509,-6.5551,-6.5453,-6.5541,-6.5534,-6.5544,-6.5656,-6.5704,-6.5656,-6.5893,-6.5811,-6.5826,-6.5831,-6.5893,-6.5921,-6.5947,-6.5608,-6.5607,-6.5605,0,0,-6.5604,-6.5608,-6.5697,-6.5705,-6.5716,-6.5692,-6.5714,-6.5709,-6.5701,-6.5788,-6.5715,-6.5764,-6.5843,-6.5852,-6.5868,-6.6065,-6.6007,-6.6079,-6.6199,-6.6265,-6.6289,-6.631,-6.638,-6.6406,-6.6094,-6.6094,-6.6095,0,-6.5715,-6.5801,-6.5749,-6.5821,-6.5842,-6.5756,-6.5845,-6.5855,-6.5879,-6.5895,-6.584,-6.5937,-6.5938,-6.605,-6.6098,-6.6113,-6.6135,-6.608,-6.629,-6.6311,-6.6329,-6.6396,-6.6422,-6.6103,-6.6102,-6.6101,-6.61,0,-6.5936,-6.5996,-6.6067,-6.6092,-6.6121,-6.6201,-6.6161,-6.6196,-6.6157,-6.6138,-6.6227,-6.6225,-6.6262,-6.6286,-6.6248,-6.6393,-6.6363,-6.63,-6.6203,-6.6368,-6.6429,-6.6454,-6.6116,-6.6113,-6.611,-6.6108,0,0,-6.6217,-6.6212,-6.6239,-6.6249,-6.6254,-6.6299,-6.6374,-6.6411,-6.6443,-6.6461,-6.6522,-6.659,-6.6532,-6.655,-6.6512,-6.657,-6.6726,-6.65,-6.6499,-6.6542,-6.6885,-6.6933,-6.6963,-6.6687,-6.6692,-6.6696,-6.6884,0,-6.6407,-6.6537,-6.6492,-6.6624,-6.6678,-6.6597,-6.6662,-6.6672,-6.6656,-6.6699,-6.668,-6.673,-6.6649,-6.6659,-6.6713,-6.6696,-6.6794,-6.6681,-6.6743,-6.6746,-6.6744,-6.6995,-6.7046,-6.7224,-6.6908,-6.6912,-6.6915,0,-6.6647,-6.6675,-6.6813,-6.6808,-6.6829,-6.6889,-6.6919,-6.6961,-6.697,-6.6954,-6.6973,-6.6922,-6.6995,-6.6898,-6.6996,-6.6921,-6.6943,-6.6938,-6.6944,-6.6949,-6.6841,-6.7007,-6.728,-6.7307,-6.6952,-6.6949,-6.6947,0,-6.6838,-6.691,-6.7002,-6.7013,-6.7009,-6.7053,-6.7053,-6.7056,-6.7081,-6.7107,-6.7123,-6.7157,-6.7176,-6.7202,-6.7162,-6.7095,-6.7266,-6.7166,-6.7255,-6.7256,-6.7295,-6.7293,-6.7577,-6.7309,-6.7309,-6.7308,-6.7308,0,-6.7056,-6.7143,-6.7088,-6.7144,-6.7239,-6.7186,-6.7281,-6.7272,-6.7275,-6.7328,-6.7258,-6.7309,-6.7252,-6.7297,-6.7265,-6.7351,-6.736,-6.7349,-6.734,-6.7356,-6.7357,-6.737,-6.7357,-6.7315,-6.7314,-6.7312,-6.7311,0,-6.7286,-6.7253,-6.7347,-6.7335,-6.7334,-6.7405,-6.7394,-6.7445,-6.7423,-6.7491,-6.7503,-6.7469,-6.7518,-6.748,-6.7528,-6.7507,-6.7621,-6.7594,-6.7619,-6.7611,-6.7703,-6.7695,-6.8004,-6.8042,-6.7751,-6.7753,-6.7756,0,-6.7428,-6.7493,-6.7488,-6.7519,-6.7523,-6.7573,-6.7598,-6.7548,-6.7577,-6.7591,-6.764,-6.7683,-6.7715,-6.7797,-6.7776,-6.7812,-6.7786,-6.7891,-6.7791,-6.7805,-6.7788,-6.7785,-6.7791,-6.7912,-6.7916,-6.7919,-6.7921,0,-6.7683,-6.7663,-6.7702,-6.7736,-6.7768,-6.7792,-6.781,-6.7838,-6.7786,-6.7822,-6.7872,-6.7897,-6.7945,-6.7989,-6.8018,-6.8016,-6.7961,-6.7953,-6.7975,-6.7993,-6.8005,-6.8,-6.7675,-6.7946,-6.7944,-6.7942,-6.794,-6.7939,-6.7873,-6.7927,-6.7932,-6.7978,-6.7986,-6.8005,-6.8052,-6.8036,-6.8077,-6.8113,-6.808,-6.8139,-6.8145,-6.8178,-6.8183,-6.8228,-6.8185,-6.8217,-6.8226,-6.8235,-6.8248,-6.7997,-6.8233,-6.8233,-6.8232,-6.8231,-6.8231,0,-6.8125,-6.8124,-6.8166,-6.8194,-6.823,-6.8174,-6.819,-6.8224,-6.8277,-6.8287,-6.832,-6.8376,-6.8418,-6.84,-6.8436,-6.8476,-6.8451,-6.8487,-6.8484,-6.8485,-6.8285,-6.8262,-6.8507,-6.8507,-6.8507,-6.8507,-6.8507,-6.8507,-6.826,-6.8349,-6.8329,-6.842,-6.8417,-6.8476,-6.849,-6.8506,-6.8514,-6.858,-6.8614,-6.8602,-6.8601,-6.8636,-6.8672,-6.8665,-6.8682,-6.8728,-6.8712,-6.8526,-6.8499,-6.8473,-6.8451,-6.8732,-6.8732,-6.8908,-6.891,-6.8911]}]]